星链-5841 (STARLINK-5841 )

导读 | 豆包AI

STARLINK-5841是美国太空探索技术公司(SpaceX)星链星座的一员,于2023年5月10日发射升空,属于星链低轨互联网星座部署计划的组成部分。星链项目旨在近地轨道构建全球卫星互联网网络,为地面基础设施匮乏区域提供高速低时延宽带接入,同时该卫星也服务于星链星座的全球通信覆盖能力建设。

Basic Information
目录编号:
56493
目录名称:
STARLINK-5841
国际标识:
2023-064AX
轨道中心:
EARTH
卫星名称:
星链-5841
卫星全名:
星链-5841 (STARLINK-5841 )
卫星状态:
在轨 (已飞行1086 天)
发射日期:
2023-05-10 UTC
国别 :
美国 (US)
星等 :
--
Orbit Information
数据来源 国际轨道数据 AOE轨道数据
星历时间 2026-04-30T06:50:43+0800
12小时前
查看轨道信息
2026-04-29T03:00:00+0800
1天前
查看轨道信息
半长轴 6950.189km 6950.185km
偏心率 0.0002779 0.0003616
轨道倾角 69.999° 69.998°
近地点辐角 268.695° 271.085°
升交点赤经 315.220° 318.145°
平近点角 91.389° 312.554°
近地点 570.12km 569.534km
远地点 573.984km 574.562km
周期 96.107分钟 96.107分钟
每日圈数 14.983314 14.983327
Detailed Information
固有亮度:
5
最大亮度:
2.5
卫星平台:
Starlink v1.5
覆盖范围:
全球
运营商:
太空探索技术公司
运营商所在国:
美国
制造商(研发单位):
太空探索技术公司
制造商所在国:
美国
使用方式:
暂无
Satellite Introduction
星链(Starlink)计划是由太空探索技术公司(SpaceX)提出的一个巨型低轨卫星互联网星座项目,计划在2019年至2024年间在太空搭建由约1.2万颗卫星组成的“星链”网络,其中1584颗将部署在地球上空550千米处的近地轨道,并从2020年开始工作。该卫星仍在工作。
2D Orbit Map
3D Orbit Map
Orbit Altitude Analysis Chart
Orbit Inclination Analysis Chart
Orbit Comprehensive Analysis Chart
View Comprehensive Chart